QPF
0.00 0.00 0.00 0.00 0.00 0.00 0.00 0.00 0.00 0.00 0.00 0.00 0.00 0.00 0.00 0.00 0.00 0.00 0.00 0.00 0.00 0.00 0.00 0.00 0.00 0.00 0.00 0.00 0.01 0.04 0.07 0.06 0.10 0.10 0.05 0.03 0.01 0.01 0.02 0.06 0.17 0.25 0.24
0.00 0.00 0.00 0.00 0.00 0.00 0.00 0.00 0.00 0.00 0.00 0.00 0.00 0.00 0.00 0.00 0.00 0.00 0.00 0.00 0.00 0.00 0.00 0.00 0.00 0.00 0.00 0.00 0.01 0.04 0.05 0.07 0.10 0.09 0.05 0.01 0.00 0.00 0.00 0.02 0.03 0.05 0.09
0.00 0.00 0.00 0.00 0.00 0.00 0.00 0.00 0.00 0.00 0.00 0.00 0.00 0.00 0.00 0.00 0.00 0.00 0.00 0.00 0.00 0.00 0.00 0.00 0.00 0.00 0.00 0.00 0.01 0.02 0.04 0.05 0.08 0.09 0.06 0.03 0.00 0.00 0.00 0.01 0.01 0.01 0.03
0.00 0.00 0.00 0.00 0.00 0.00 0.00 0.00 0.00 0.00 0.00 0.00 0.00 0.00 0.00 0.00 0.00 0.00 0.00 0.00 0.00 0.00 0.00 0.00 0.01 0.00 0.00 0.01 0.01 0.01 0.04 0.06 0.07 0.08 0.07 0.05 0.02 0.00 0.00 0.00 0.00 0.02 0.02
0.00 0.00 0.00 0.00 0.00 0.00 0.00 0.00 0.00 0.00 0.00 0.00 0.00 0.00 0.00 0.00 0.00 0.00 0.00 0.00 0.00 0.00 0.00 0.01 0.03 0.03 0.01 0.00 0.01 0.04 0.04 0.06 0.08 0.09 0.10 0.10 0.08 0.04 0.01 0.01 0.00 0.00 0.01
0.00 0.00 0.00 0.00 0.00 0.00 0.00 0.00 0.00 0.00 0.00 0.00 0.00 0.00 0.00 0.00 0.00 0.00 0.00 0.00 0.00 0.00 0.00 0.01 0.02 0.03 0.04 0.01 0.00 0.10 0.31 0.37 0.23 0.19 0.23 0.19 0.11 0.07 0.02 0.02 0.02 0.01 0.00
0.00 0.00 0.00 0.00 0.00 0.00 0.00 0.00 0.00 0.00 0.00 0.00 0.00 0.00 0.00 0.00 0.00 0.00 0.00 0.01 0.05 0.01 0.01 0.01 0.00 0.00 0.01 0.01 0.00 0.04 0.24 0.52 0.80 0.84 0.72 0.53 0.27 0.14 0.06 0.02 0.01 0.01 0.00
0.00 0.00 0.00 0.00 0.00 0.00 0.00 0.00 0.00 0.00 0.00 0.00 0.00 0.00 0.00 0.00 0.00 0.00 0.00 0.02 0.00 0.00 0.00 0.00 0.02 0.03 0.03 0.00 0.00 0.03 0.15 0.29 0.43 0.56 0.64 0.58 0.40 0.17 0.07 0.03 0.00 0.00 0.00
0.00 0.00 0.00 0.00 0.00 0.00 0.00 0.00 0.00 0.00 0.00 0.00 0.00 0.00 0.00 0.00 0.00 0.00 0.00 0.00 0.00 0.00 0.00 0.00 0.01 0.04 0.06 0.04 0.00 0.00 0.04 0.10 0.12 0.15 0.18 0.19 0.15 0.06 0.02 0.00 0.00 0.00 0.00
0.00 0.00 0.00 0.00 0.00 0.00 0.00 0.00 0.00 0.00 0.00 0.00 0.00 0.00 0.00 0.00 0.00 0.00 0.00 0.00 0.00 0.00 0.00 0.00 0.00 0.00 0.00 0.00 0.00 0.00 0.00 0.01 0.01 0.01 0.02 0.02 0.01 0.00 0.00 0.00 0.00 0.00 0.00
0.00 0.00 0.00 0.00 0.00 0.00 0.00 0.00 0.00 0.00 0.00 0.00 0.00 0.00 0.00 0.00 0.00 0.00 0.00 0.00 0.00 0.00 0.00 0.00 0.00 0.00 0.00 0.00 0.00 0.00 0.00 0.00 0.00 0.00 0.00 0.00 0.00 0.00 0.00 0.00 0.00 0.00 0.00
0.00 0.00 0.00 0.00 0.00 0.00 0.00 0.00 0.00 0.00 0.00 0.00 0.00 0.00 0.00 0.00 0.00 0.00 0.00 0.00 0.00 0.00 0.00 0.00 0.00 0.00 0.00 0.00 0.00 0.00 0.00 0.00 0.00 0.00 0.00 0.00 0.00 0.00 0.00 0.00 0.00 0.00 0.00
0.00 0.00 0.00 0.00 0.00 0.00 0.00 0.00 0.00 0.00 0.00 0.00 0.00 0.00 0.00 0.00 0.00 0.00 0.00 0.00 0.00 0.00 0.00 0.00 0.00 0.00 0.00 0.00 0.00 0.00 0.00 0.00 0.00 0.00 0.00 0.00 0.00 0.00 0.00 0.00 0.00 0.00 0.00
0.00 0.00 0.00 0.00 0.00 0.00 0.00 0.00 0.00 0.00 0.00 0.00 0.00 0.00 0.00 0.00 0.00 0.00 0.00 0.00 0.00 0.00 0.00 0.00 0.00 0.00 0.00 0.00 0.00 0.00 0.00 0.00 0.00 0.00 0.00 0.00 0.00 0.00 0.00 0.00 0.00 0.00 0.00
0.00 0.00 0.00 0.00 0.00 0.00 0.00 0.00 0.00 0.00 0.00 0.00 0.00 0.00 0.00 0.00 0.00 0.00 0.00 0.00 0.00 0.00 0.00 0.00 0.00 0.00 0.00 0.00 0.00 0.00 0.00 0.00 0.00 0.00 0.00 0.00 0.00 0.00 0.00 0.00 0.00 0.00 0.00
0.00 0.00 0.00 0.00 0.00 0.00 0.00 0.00 0.00 0.00 0.00 0.00 0.00 0.00 0.00 0.00 0.00 0.00 0.00 0.00 0.00 0.00 0.00 0.00 0.00 0.00 0.00 0.00 0.00 0.00 0.00 0.00 0.00 0.00 0.00 0.00 0.00 0.00 0.00 0.00 0.00 0.00 0.00
0.00 0.00 0.00 0.00 0.00 0.00 0.00 0.00 0.00 0.00 0.00 0.00 0.00 0.00 0.00 0.00 0.00 0.00 0.00 0.00 0.00 0.00 0.00 0.00 0.00 0.00 0.00 0.00 0.00 0.00 0.00 0.00 0.00 0.00 0.00 0.00 0.00 0.00 0.00 0.00 0.00 0.00 0.00
0.00 0.00 0.00 0.00 0.00 0.00 0.00 0.00 0.00 0.00 0.00 0.00 0.00 0.00 0.00 0.00 0.00 0.00 0.00 0.00 0.00 0.00 0.00 0.00 0.00 0.00 0.00 0.00 0.00 0.00 0.00 0.00 0.00 0.00 0.00 0.00 0.00 0.00 0.00 0.00 0.00 0.00 0.00
0.00 0.00 0.00 0.00 0.00 0.00 0.00 0.00 0.00 0.00 0.00 0.00 0.00 0.00 0.00 0.00 0.00 0.00 0.00 0.00 0.00 0.00 0.00 0.00 0.00 0.00 0.00 0.00 0.00 0.00 0.00 0.00 0.00 0.00 0.00 0.00 0.00 0.00 0.00 0.00 0.00 0.00 0.00
0.00 0.00 0.00 0.00 0.00 0.00 0.00 0.00 0.00 0.00 0.00 0.00 0.00 0.00 0.00 0.00 0.00 0.00 0.00 0.00 0.00 0.00 0.00 0.00 0.00 0.00 0.00 0.00 0.00 0.00 0.00 0.00 0.00 0.00 0.00 0.00 0.00 0.00 0.00 0.00 0.00 0.00 0.00
0.00 0.00 0.00 0.00 0.00 0.00 0.00 0.00 0.00 0.00 0.00 0.00 0.00 0.00 0.00 0.00 0.00 0.00 0.00 0.00 0.00 0.00 0.00 0.00 0.00 0.00 0.00 0.00 0.00 0.00 0.00 0.00 0.00 0.00 0.00 0.00 0.00 0.00 0.00 0.00 0.00 0.01 0.01
0.00 0.00 0.00 0.00 0.00 0.00 0.00 0.00 0.00 0.00 0.00 0.00 0.00 0.00 0.00 0.00 0.00 0.00 0.00 0.00 0.00 0.00 0.00 0.00 0.00 0.00 0.00 0.00 0.00 0.00 0.00 0.00 0.00 0.00 0.00 0.00 0.00 0.00 0.00 0.00 0.00 0.01 0.00
0.00 0.00 0.00 0.00 0.00 0.00 0.00 0.00 0.00 0.00 0.00 0.00 0.00 0.00 0.00 0.00 0.00 0.00 0.00 0.00 0.00 0.00 0.00 0.00 0.00 0.00 0.00 0.00 0.00 0.00 0.00 0.00 0.00 0.00 0.00 0.00 0.00 0.00 0.00 0.00 0.00 0.00 0.00
0.00 0.00 0.00 0.00 0.00 0.00 0.00 0.00 0.00 0.00 0.00 0.00 0.00 0.00 0.00 0.00 0.00 0.00 0.00 0.00 0.00 0.00 0.00 0.00 0.00 0.00 0.00 0.00 0.00 0.00 0.00 0.00 0.00 0.00 0.00 0.00 0.00 0.00 0.00 0.00 0.00 0.00 0.00
0.00 0.00 0.00 0.00 0.00 0.00 0.00 0.00 0.00 0.00 0.00 0.00 0.00 0.00 0.00 0.00 0.00 0.00 0.00 0.00 0.00 0.00 0.00 0.00 0.00 0.00 0.00 0.00 0.00 0.00 0.00 0.00 0.00 0.00 0.00 0.00 0.00 0.00 0.00 0.00 0.00 0.00 0.00
0.00 0.00 0.00 0.00 0.00 0.00 0.00 0.00 0.00 0.00 0.00 0.00 0.00 0.00 0.00 0.00 0.00 0.00 0.00 0.00 0.00 0.00 0.00 0.00 0.00 0.00 0.00 0.00 0.00 0.00 0.00 0.00 0.00 0.00 0.00 0.00 0.00 0.00 0.00 0.00 0.00 0.00 0.00
MSLP
1021.64 1021.57 1021.54 1021.36 1021.13 1020.89 1020.72 1020.45 1019.86 1019.34 1018.78 1018.09 1017.63 1017.08 1016.63 1016.11 1015.65 1015.26 1014.88 1014.55 1014.43 1014.01 1013.42 1013.11 1012.67 1012.10 1011.48 1011.20 1010.98 1010.61 1010.50 1010.27 1010.32 1010.56 1010.59 1010.32 1010.31 1010.37 1010.39 1010.41 1010.62 1010.71 1010.97
1021.65 1021.60 1021.46 1021.34 1021.39 1021.30 1021.06 1020.64 1020.21 1019.69 1019.06 1018.52 1017.97 1017.57 1016.96 1016.42 1016.13 1015.49 1015.24 1014.88 1014.78 1014.74 1013.89 1013.41 1013.07 1012.19 1011.26 1010.51 1010.33 1010.34 1010.00 1009.85 1009.94 1010.07 1010.39 1010.26 1010.15 1009.82 1009.74 1009.80 1010.00 1010.13 1010.61
1021.38 1021.41 1021.35 1021.54 1021.53 1021.38 1021.17 1020.84 1020.42 1019.97 1019.29 1018.77 1018.23 1017.66 1016.99 1016.60 1016.12 1015.94 1015.64 1015.11 1015.26 1015.13 1014.50 1013.95 1013.29 1012.27 1011.32 1010.06 1009.53 1009.64 1009.70 1009.49 1009.45 1009.34 1009.74 1009.85 1009.65 1009.57 1009.11 1009.05 1009.26 1009.62 1009.85
1021.22 1021.28 1021.38 1021.47 1021.43 1021.27 1021.10 1020.84 1020.43 1020.02 1019.44 1019.01 1018.49 1018.03 1017.64 1017.28 1017.10 1016.80 1016.22 1015.82 1015.61 1015.50 1014.51 1014.16 1013.55 1012.90 1011.53 1010.11 1009.28 1008.85 1009.07 1009.12 1009.12 1009.04 1009.06 1009.23 1009.38 1009.52 1009.25 1008.98 1008.90 1009.04 1009.15
1021.11 1021.22 1021.24 1021.28 1021.16 1021.14 1021.05 1020.85 1020.53 1020.14 1019.59 1019.19 1018.91 1018.59 1018.34 1017.98 1017.66 1017.22 1016.69 1016.26 1015.83 1015.40 1014.78 1014.61 1013.91 1013.52 1012.53 1011.32 1010.17 1009.16 1008.86 1008.54 1008.89 1009.07 1008.96 1009.12 1009.07 1009.11 1008.74 1009.17 1009.00 1009.17 1008.58
1021.02 1021.11 1021.17 1021.20 1021.19 1021.05 1021.06 1020.86 1020.39 1020.07 1019.85 1019.54 1019.22 1018.89 1018.65 1018.49 1018.19 1017.73 1017.39 1017.12 1016.62 1015.24 1015.19 1015.06 1014.66 1014.13 1013.35 1012.40 1011.44 1010.57 1009.78 1009.31 1009.02 1009.51 1009.98 1008.82 1008.62 1008.52 1008.50 1008.91 1008.99 1009.00 1008.56
1020.89 1021.05 1021.09 1021.02 1020.93 1020.95 1020.77 1020.64 1020.40 1020.18 1019.99 1019.79 1019.41 1019.17 1019.19 1019.02 1018.77 1018.51 1018.15 1017.47 1017.03 1016.25 1015.80 1015.51 1015.20 1014.69 1013.94 1013.22 1012.42 1011.61 1010.80 1010.26 1009.46 1009.61 1010.16 1010.95 1009.21 1008.51 1008.62 1008.81 1009.02 1009.08 1008.78
1020.60 1020.74 1020.69 1020.73 1020.75 1020.65 1020.56 1020.53 1020.23 1020.06 1019.88 1019.73 1019.64 1019.54 1019.33 1019.13 1018.95 1018.73 1018.45 1018.18 1017.59 1016.98 1016.67 1016.32 1016.03 1015.28 1014.70 1013.78 1013.12 1012.53 1012.16 1011.97 1011.37 1010.45 1010.39 1012.19 1010.89 1009.67 1009.23 1010.00 1009.73 1009.64 1009.44
1020.13 1020.16 1020.22 1020.30 1020.35 1020.30 1020.26 1020.26 1020.10 1019.96 1019.82 1019.83 1019.82 1019.76 1019.54 1019.32 1019.12 1018.79 1018.58 1018.34 1017.99 1017.63 1017.17 1016.68 1016.25 1015.69 1015.33 1014.61 1013.99 1013.35 1013.00 1012.53 1012.05 1012.13 1010.69 1012.90 1012.27 1011.95 1011.24 1010.69 1010.72 1010.48 1010.48
1019.63 1019.67 1019.69 1019.75 1019.86 1019.87 1019.85 1020.07 1020.11 1020.10 1019.99 1019.95 1019.91 1019.74 1019.52 1019.31 1019.14 1018.96 1018.79 1018.49 1018.22 1017.91 1017.44 1016.97 1016.61 1016.24 1015.85 1015.33 1014.88 1014.33 1014.02 1013.54 1012.59 1012.72 1012.13 1013.84 1013.36 1012.63 1012.13 1011.74 1011.25 1011.25 1011.34
1018.76 1018.92 1018.98 1019.05 1019.18 1019.26 1019.44 1019.62 1019.70 1019.72 1019.72 1019.70 1019.69 1019.68 1019.61 1019.44 1019.24 1019.10 1018.97 1018.83 1018.60 1018.33 1017.98 1017.58 1017.05 1016.50 1016.15 1015.73 1015.21 1014.85 1014.91 1014.51 1014.20 1013.55 1013.58 1013.72 1013.39 1013.12 1012.66 1012.06 1012.23 1012.20 1012.56
1017.72 1018.01 1018.22 1018.46 1018.59 1018.66 1018.81 1018.97 1019.12 1019.27 1019.26 1019.23 1019.32 1019.43 1019.48 1019.44 1019.38 1019.30 1019.14 1018.94 1018.75 1018.52 1018.29 1018.00 1017.69 1017.27 1016.84 1016.45 1016.14 1015.67 1015.04 1014.72 1014.54 1014.54 1014.53 1014.31 1014.03 1013.68 1013.49 1013.17 1013.05 1012.89 1013.33
1017.16 1017.31 1017.63 1017.77 1017.83 1017.93 1018.03 1018.17 1018.44 1018.63 1018.71 1018.76 1018.87 1018.99 1019.15 1019.29 1019.32 1019.24 1019.07 1018.93 1018.80 1018.61 1018.35 1018.11 1017.92 1017.59 1017.08 1016.58 1016.17 1016.03 1015.99 1015.76 1015.38 1014.96 1014.74 1014.63 1014.50 1014.42 1014.26 1013.78 1013.82 1013.77 1013.62
1016.42 1016.48 1016.73 1016.80 1016.91 1016.99 1017.17 1017.34 1017.62 1017.99 1018.25 1018.47 1018.68 1018.84 1018.95 1018.99 1019.04 1019.06 1019.03 1018.91 1018.81 1018.70 1018.51 1018.27 1018.01 1017.69 1017.33 1016.96 1016.66 1016.33 1016.00 1015.78 1015.64 1015.42 1015.32 1015.12 1014.95 1014.67 1014.30 1014.13 1014.13 1013.99 1013.90
1015.54 1015.53 1015.59 1015.60 1015.75 1015.99 1016.21 1016.56 1016.85 1017.30 1017.64 1018.04 1018.28 1018.50 1018.71 1018.82 1018.90 1018.97 1018.96 1018.95 1018.85 1018.76 1018.68 1018.49 1018.17 1017.83 1017.40 1016.94 1016.53 1016.52 1016.55 1016.44 1016.25 1015.91 1015.70 1015.40 1015.18 1014.78 1014.46 1014.28 1014.31 1014.20 1013.74
1014.53 1014.29 1014.43 1014.69 1014.82 1014.88 1015.06 1015.49 1015.92 1016.30 1016.89 1017.38 1017.73 1018.02 1018.29 1018.55 1018.74 1018.89 1019.00 1019.00 1018.88 1018.69 1018.48 1018.29 1018.13 1017.87 1017.40 1016.84 1016.39 1016.21 1016.21 1016.11 1016.11 1016.15 1015.98 1015.73 1015.53 1015.08 1014.67 1014.22 1013.67 1013.68 1013.43
1013.56 1013.51 1013.51 1013.59 1013.65 1013.67 1013.84 1014.41 1014.65 1015.21 1016.04 1016.69 1017.16 1017.55 1017.87 1018.19 1018.40 1018.62 1018.81 1018.88 1018.83 1018.70 1018.56 1018.41 1018.22 1017.95 1017.51 1016.90 1016.44 1016.16 1016.18 1016.24 1016.21 1016.07 1015.85 1015.46 1015.04 1014.65 1014.22 1013.84 1013.67 1013.54 1013.31
1012.83 1012.67 1012.65 1012.70 1012.70 1012.80 1013.13 1013.38 1014.02 1014.72 1015.42 1016.11 1016.65 1017.15 1017.55 1017.85 1018.14 1018.36 1018.49 1018.65 1018.64 1018.68 1018.62 1018.45 1018.22 1017.94 1017.50 1016.93 1016.50 1016.37 1016.33 1016.27 1016.09 1015.78 1015.46 1015.23 1014.92 1014.59 1014.06 1013.80 1013.62 1013.36 1013.17
1012.11 1012.06 1012.00 1012.12 1012.13 1012.28 1012.41 1013.11 1013.79 1014.22 1014.99 1015.71 1016.34 1016.73 1017.11 1017.53 1017.77 1018.02 1018.24 1018.33 1018.50 1018.57 1018.50 1018.38 1018.21 1018.01 1017.55 1017.02 1016.52 1016.27 1016.26 1016.16 1015.99 1015.70 1015.42 1015.14 1014.85 1014.41 1013.88 1013.60 1013.48 1013.25 1013.10
1011.80 1011.72 1011.74 1011.90 1012.08 1011.82 1012.30 1012.84 1013.27 1013.87 1014.50 1015.01 1015.67 1016.31 1016.84 1017.27 1017.54 1017.78 1018.00 1018.06 1018.13 1018.16 1018.19 1018.14 1018.04 1017.78 1017.57 1017.24 1016.70 1016.33 1016.23 1016.05 1015.79 1015.41 1015.19 1014.93 1014.57 1014.19 1013.78 1013.42 1013.26 1013.08 1012.75
1011.46 1011.40 1011.56 1011.75 1011.73 1011.86 1012.24 1012.59 1013.07 1013.56 1013.97 1014.81 1015.46 1016.06 1016.46 1016.87 1017.22 1017.59 1017.73 1017.78 1017.88 1017.94 1018.08 1017.89 1017.74 1017.58 1017.45 1017.14 1016.68 1016.25 1015.91 1015.78 1015.48 1015.22 1014.97 1014.64 1014.24 1013.79 1013.35 1012.96 1012.81 1012.66 1012.20
1011.24 1011.27 1011.45 1011.48 1011.55 1011.93 1012.33 1012.54 1012.88 1012.98 1013.64 1014.60 1015.42 1016.04 1016.30 1016.54 1016.83 1017.22 1017.47 1017.60 1017.80 1017.75 1017.78 1017.82 1017.56 1017.26 1017.10 1016.90 1016.55 1016.10 1015.72 1015.34 1015.05 1014.85 1014.52 1014.20 1013.81 1013.30 1012.91 1012.63 1012.35 1011.98 1011.68
1010.98 1011.04 1011.23 1011.34 1011.47 1011.66 1011.96 1012.46 1012.60 1013.07 1013.88 1014.60 1015.26 1015.73 1016.16 1016.47 1016.70 1017.00 1017.21 1017.47 1017.59 1017.56 1017.45 1017.42 1017.28 1016.98 1016.70 1016.55 1016.29 1015.95 1015.61 1015.19 1014.80 1014.50 1014.20 1013.67 1013.37 1013.06 1012.78 1012.58 1012.14 1011.70 1011.74
1011.03 1011.03 1011.33 1011.44 1011.46 1011.57 1011.87 1012.06 1012.65 1013.16 1013.69 1014.32 1015.14 1015.75 1015.98 1016.30 1016.49 1016.57 1016.69 1016.92 1017.12 1017.21 1017.09 1016.94 1016.88 1016.66 1016.37 1016.18 1015.84 1015.56 1015.20 1014.81 1014.46 1014.11 1013.80 1013.50 1013.19 1013.06 1012.70 1012.38 1012.14 1011.91 1011.67
1010.38 1010.64 1010.81 1010.89 1010.88 1011.16 1011.47 1011.84 1012.49 1013.11 1013.69 1014.10 1014.46 1015.04 1015.71 1015.95 1016.11 1016.17 1016.27 1016.41 1016.43 1016.56 1016.41 1016.30 1016.27 1016.18 1015.94 1015.64 1015.13 1014.70 1014.53 1014.28 1013.88 1013.36 1013.54 1013.46 1013.24 1012.93 1012.59 1012.28 1011.90 1011.64 1011.47
1010.19 1010.39 1010.42 1010.66 1010.56 1010.68 1011.32 1011.71 1012.22 1012.87 1013.51 1014.21 1014.48 1014.45 1014.96 1015.74 1015.85 1015.87 1015.97 1015.89 1015.79 1015.76 1015.72 1015.59 1015.47 1015.37 1015.21 1014.89 1014.54 1014.35 1014.09 1013.85 1013.45 1013.29 1013.46 1013.34 1013.09 1012.76 1012.36 1011.95 1011.55 1011.41 1011.19
Thickness
5603 5602 5600 5599 5599 5598 5596 5595 5597 5599 5600 5600 5600 5598 5596 5593 5590 5586 5583 5579 5572 5568 5565 5564 5566 5569 5579 5587 5593 5602 5608 5616 5621 5620 5623 5628 5633 5637 5641 5644 5645 5646 5644
5595 5594 5594 5592 5589 5587 5586 5586 5587 5588 5589 5589 5589 5587 5584 5581 5575 5573 5571 5564 5557 5548 5544 5539 5536 5544 5555 5568 5577 5584 5594 5602 5608 5610 5608 5612 5620 5629 5634 5637 5639 5639 5636
5592 5589 5589 5584 5581 5579 5578 5578 5578 5578 5579 5578 5578 5576 5575 5572 5568 5562 5558 5552 5541 5531 5524 5517 5513 5519 5530 5550 5562 5570 5576 5588 5596 5602 5600 5600 5608 5615 5625 5631 5632 5630 5631
5587 5585 5583 5579 5576 5575 5572 5570 5570 5569 5570 5568 5567 5565 5562 5557 5550 5547 5543 5536 5528 5519 5512 5501 5495 5497 5511 5532 5548 5560 5566 5573 5583 5590 5597 5597 5601 5603 5608 5615 5620 5622 5624
5581 5579 5577 5575 5573 5569 5565 5563 5562 5561 5561 5559 5555 5552 5547 5543 5537 5534 5531 5526 5519 5512 5505 5492 5486 5485 5492 5508 5528 5546 5556 5567 5572 5577 5585 5587 5592 5593 5600 5601 5606 5607 5615
5576 5574 5573 5569 5565 5563 5559 5557 5557 5554 5551 5548 5545 5542 5538 5532 5526 5521 5517 5511 5508 5510 5498 5488 5482 5480 5483 5492 5507 5523 5536 5547 5557 5561 5563 5582 5585 5588 5590 5589 5593 5596 5602
5571 5569 5566 5563 5562 5558 5556 5553 5550 5547 5542 5539 5537 5534 5527 5522 5516 5511 5505 5502 5499 5498 5492 5483 5478 5477 5479 5483 5490 5503 5517 5529 5542 5547 5549 5544 5560 5570 5572 5577 5579 5584 5589
5568 5565 5563 5559 5557 5555 5551 5547 5545 5542 5538 5534 5529 5525 5520 5515 5510 5504 5498 5493 5490 5487 5482 5478 5473 5472 5472 5477 5480 5488 5497 5505 5517 5528 5531 5519 5533 5541 5549 5548 5555 5564 5568
5566 5564 5561 5558 5554 5551 5547 5543 5540 5537 5533 5528 5523 5517 5512 5508 5503 5499 5494 5488 5484 5481 5477 5473 5472 5472 5471 5471 5473 5478 5487 5496 5504 5506 5519 5501 5508 5513 5520 5531 5534 5541 5548
5564 5562 5560 5556 5551 5548 5544 5538 5533 5529 5525 5520 5515 5511 5507 5503 5498 5493 5487 5483 5478 5475 5473 5472 5469 5468 5467 5468 5470 5472 5476 5484 5494 5494 5498 5486 5491 5499 5504 5511 5518 5521 5524
5564 5561 5559 5556 5551 5546 5540 5534 5530 5525 5520 5514 5509 5504 5499 5495 5491 5487 5482 5476 5472 5468 5465 5464 5464 5463 5462 5463 5466 5470 5470 5472 5474 5479 5480 5479 5481 5484 5490 5498 5498 5497 5495
5567 5562 5558 5554 5550 5545 5539 5534 5528 5522 5517 5512 5506 5499 5493 5488 5484 5480 5476 5472 5468 5464 5460 5457 5455 5455 5456 5456 5457 5459 5464 5466 5467 5465 5463 5465 5468 5470 5470 5474 5476 5477 5473
5565 5560 5555 5552 5548 5543 5538 5533 5526 5520 5514 5508 5502 5496 5490 5484 5479 5474 5471 5467 5463 5459 5456 5452 5448 5447 5448 5449 5451 5451 5449 5448 5449 5451 5451 5450 5448 5447 5449 5454 5453 5453 5456
5566 5561 5554 5552 5548 5545 5539 5534 5526 5519 5511 5504 5498 5492 5486 5481 5476 5471 5467 5463 5459 5454 5451 5448 5444 5442 5440 5439 5437 5438 5439 5440 5438 5437 5435 5434 5433 5434 5435 5436 5435 5437 5437
5568 5563 5561 5558 5553 5546 5541 5533 5526 5518 5509 5502 5495 5488 5481 5476 5471 5466 5461 5456 5452 5448 5444 5440 5438 5435 5434 5433 5430 5425 5420 5417 5417 5418 5418 5419 5419 5421 5422 5421 5419 5420 5423
5575 5571 5564 5559 5553 5550 5545 5536 5528 5519 5510 5501 5493 5486 5479 5472 5465 5459 5453 5448 5444 5441 5437 5434 5430 5427 5426 5425 5423 5419 5411 5406 5402 5399 5398 5397 5398 5400 5403 5406 5411 5410 5411
5577 5573 5568 5562 5559 5554 5549 5539 5533 5523 5510 5500 5493 5485 5477 5470 5462 5454 5447 5441 5436 5432 5428 5423 5419 5414 5411 5412 5410 5406 5397 5388 5383 5382 5381 5383 5386 5388 5389 5392 5393 5393 5395
5577 5574 5569 5562 5557 5554 5546 5540 5528 5518 5508 5498 5489 5481 5472 5464 5456 5449 5442 5434 5428 5422 5417 5412 5409 5404 5402 5401 5398 5392 5383 5377 5373 5371 5370 5368 5368 5369 5374 5375 5376 5377 5377
5578 5573 5569 5563 5557 5550 5544 5533 5521 5513 5502 5492 5482 5475 5467 5458 5452 5444 5436 5428 5420 5413 5408 5403 5397 5393 5390 5389 5386 5381 5374 5368 5363 5360 5355 5354 5352 5354 5357 5358 5358 5360 5359
5570 5568 5563 5557 5550 5547 5536 5527 5519 5508 5499 5489 5479 5468 5458 5450 5443 5436 5428 5421 5414 5408 5401 5395 5389 5384 5377 5374 5372 5369 5363 5357 5353 5349 5346 5344 5342 5340 5339 5340 5338 5339 5339
5565 5562 5556 5549 5544 5535 5527 5521 5511 5501 5493 5481 5470 5460 5452 5443 5434 5426 5419 5414 5407 5400 5392 5387 5380 5374 5368 5363 5360 5357 5353 5348 5342 5338 5334 5331 5329 5329 5329 5329 5326 5324 5327
5558 5553 5546 5541 5534 5524 5516 5510 5503 5496 5485 5472 5460 5449 5442 5436 5428 5419 5411 5404 5397 5391 5384 5376 5371 5366 5359 5354 5349 5347 5343 5339 5334 5328 5325 5322 5322 5322 5320 5318 5317 5316 5315
5550 5544 5537 5531 5524 5516 5509 5500 5495 5484 5470 5460 5450 5441 5432 5424 5418 5410 5403 5395 5388 5381 5376 5371 5363 5356 5351 5343 5339 5336 5331 5328 5324 5321 5319 5319 5316 5313 5309 5305 5304 5304 5298
5536 5530 5522 5516 5512 5504 5497 5492 5481 5470 5460 5449 5437 5428 5422 5415 5409 5403 5397 5389 5381 5373 5370 5364 5356 5347 5341 5335 5330 5326 5322 5319 5316 5314 5309 5307 5303 5297 5294 5292 5288 5286 5283
5530 5522 5514 5508 5505 5495 5488 5480 5469 5458 5447 5438 5431 5421 5411 5406 5400 5395 5389 5383 5376 5368 5363 5358 5350 5341 5333 5328 5326 5324 5317 5313 5313 5313 5305 5298 5292 5286 5282 5279 5277 5274 5270
5515 5507 5501 5495 5491 5485 5474 5466 5456 5445 5434 5425 5418 5414 5406 5392 5389 5385 5380 5376 5372 5367 5361 5355 5348 5339 5332 5327 5322 5317 5312 5309 5309 5305 5295 5289 5283 5278 5274 5271 5267 5261 5257